Bowling Green, KY

1:53 AM CDT on September 25, 2017 (GMT -0500)
Bowling Green-Warren County Regional

Weather History for KBWG - October, 2012

Change the Weather History Date:

Tuesday, October 2, 2012

  Actual Average Record
Temperature  
Mean Temperature 62 °F 64 °F  
Max Temperature 66 °F 76 °F 93 °F (1919)
Min Temperature 57 °F 51 °F 29 °F (1886)
Degree Days  
Heating Degree Days 3 4  
Month to date heating degree days 5 8  
Since 1 July heating degree days 38 44  
Cooling Degree Days 0 2  
Month to date cooling degree days 0 5  
Year to date cooling degree days 1923 1460  
Growing Degree Days 10 (Base 50)    
Moisture  
Dew Point 56 °F    
Average Humidity 85    
Maximum Humidity 97    
Minimum Humidity 73    
Precipitation  
Precipitation 0.01 in 0.12 in 2.61 in (1962)
Month to date precipitation 1.28 0.23  
Year to date precipitation 32.76 37.72  
Snow  
Snow 0.00 in 0.00 in 0.00 in ()
Month to date snowfall 0.0 0.0  
Since 1 July snowfall 0.0 0.0  
Since 1 September snowfall 0.0 0.0  
Snow Depth 0.00 in    
Sea Level Pressure  
Sea Level Pressure 29.79 in    
Wind  
Wind Speed 6 mph (SW)    
Max Wind Speed 13 mph    
Max Gust Speed 17 mph    
Visibility 8 miles    
Events Rain    
T = Trace of Precipitation, MM = Missing Value Source: NWS Daily Summary

Daily Weather History Graph

Daily Weather History Graph

Search for Another Location

Airport or City:

Trip Planner

Search our weather history database for the weather conditions in past years. The results will help you decide how hot, cold, wet, or windy it might be!

Date:

Astronomy

Oct. 02, 2012 Rise Set
Actual Time 6:42 AM CDT 6:26 PM CDT
Civil Twilight 6:16 AM CDT 6:52 PM CDT
Nautical Twilight 5:46 AM CDT 7:22 PM CDT
Astronomical Twilight 5:16 AM CDT 7:52 PM CDT
Moon 7:44 PM CDT (10/2) 9:04 AM CDT (10/2)
Length of Visible Light 12h 36m
Length of Day
11h 44m
Waning Gibbous, 94% of the Moon is Illuminated
Oct 2
Waning Gibbous
Oct 8
Last Quarter
Oct 15
New
Oct 21
First Quarter
Oct 29
Full

Hourly Weather History & Observations

Time (CDT) Temp. Dew Point Humidity Pressure Visibility Wind Dir Wind Speed Gust Speed Precip Events Conditions
12:41 AM 60.8 °F 59.0 °F 94% 29.63 in 8.0 mi WSW 5.8 mph - N/A   Overcast
12:53 AM 61.0 °F 59.0 °F 93% 29.62 in 6.0 mi WSW 4.6 mph - N/A   Overcast
1:03 AM 60.8 °F 59.0 °F 94% 29.63 in 6.0 mi WSW 3.5 mph - N/A   Overcast
2:53 AM 60.1 °F 57.9 °F 93% 29.64 in 7.0 mi Calm Calm - N/A   Overcast
3:21 AM 60.8 °F 57.2 °F 88% 29.66 in 10.0 mi WSW 4.6 mph - N/A   Overcast
3:53 AM 59.0 °F 57.0 °F 93% 29.66 in 8.0 mi WSW 3.5 mph - N/A   Overcast
4:45 AM 59.0 °F 57.2 °F 94% 29.67 in 5.0 mi Calm Calm - N/A   Overcast
4:53 AM 59.0 °F 57.0 °F 93% 29.66 in 6.0 mi SW 3.5 mph - N/A   Overcast
5:20 AM 59.0 °F 57.2 °F 94% 29.67 in 8.0 mi SW 4.6 mph - N/A   Overcast
5:53 AM 59.0 °F 55.9 °F 90% 29.67 in 10.0 mi SSW 5.8 mph - N/A   Overcast
6:53 AM 60.1 °F 55.9 °F 86% 29.69 in 8.0 mi SSW 4.6 mph - N/A   Overcast
7:53 AM 60.1 °F 55.9 °F 86% 29.72 in 7.0 mi WSW 3.5 mph - N/A   Overcast
8:53 AM 60.1 °F 55.9 °F 86% 29.74 in 6.0 mi WSW 5.8 mph - N/A   Overcast
9:21 AM 59.0 °F 57.2 °F 94% 29.75 in 2.5 mi WSW 5.8 mph - 0.00 in Rain Light Rain
9:29 AM 60.8 °F 57.2 °F 88% 29.76 in 3.0 mi West 5.8 mph - 0.00 in   Overcast
9:50 AM 60.8 °F 57.2 °F 88% 29.77 in 7.0 mi WSW 4.6 mph - 0.00 in   Overcast
9:53 AM 61.0 °F 57.0 °F 87% 29.76 in 6.0 mi WSW 5.8 mph - 0.00 in   Overcast
10:11 AM 60.8 °F 57.2 °F 88% 29.77 in 4.0 mi WSW 4.6 mph - N/A   Overcast
10:23 AM 60.8 °F 57.2 °F 88% 29.78 in 8.0 mi WSW 4.6 mph - N/A   Overcast
10:53 AM 61.0 °F 57.0 °F 87% 29.78 in 10.0 mi SW 5.8 mph - N/A   Overcast
11:05 AM 62.6 °F 57.2 °F 82% 29.79 in 10.0 mi WSW 4.6 mph - N/A   Overcast
11:28 AM 62.6 °F 57.2 °F 82% 29.79 in 10.0 mi SW 5.8 mph - N/A   Overcast
11:53 AM 62.1 °F 55.9 °F 80% 29.78 in 10.0 mi West 6.9 mph - 0.01 in   Overcast
12:24 PM 64.4 °F 55.4 °F 73% 29.79 in 10.0 mi SSW 8.1 mph - N/A   Overcast
12:53 PM 63.0 °F 55.9 °F 78% 29.78 in 10.0 mi SW 5.8 mph - N/A   Overcast
1:11 PM 64.4 °F 55.4 °F 73% 29.79 in 10.0 mi SSW 8.1 mph - N/A   Overcast
1:53 PM 64.9 °F 55.9 °F 73% 29.78 in 10.0 mi SW 8.1 mph - N/A   Overcast
2:53 PM 64.9 °F 55.9 °F 73% 29.79 in 10.0 mi SW 8.1 mph - N/A   Overcast
3:15 PM 64.4 °F 55.4 °F 73% 29.81 in 10.0 mi WSW 10.4 mph - N/A   Overcast
3:23 PM 62.6 °F 55.4 °F 77% 29.82 in 10.0 mi WSW 9.2 mph - N/A   Overcast
3:38 PM 62.6 °F 55.4 °F 77% 29.82 in 10.0 mi WSW 8.1 mph - N/A   Overcast
3:53 PM 63.0 °F 55.0 °F 75% 29.82 in 10.0 mi WSW 9.2 mph - N/A   Overcast
4:53 PM 61.0 °F 55.9 °F 83% 29.85 in 5.0 mi SW 6.9 mph - 0.00 in Rain Light Rain
5:12 PM 60.8 °F 57.2 °F 88% 29.86 in 4.0 mi WSW 5.8 mph - 0.00 in Rain Light Rain
5:37 PM 59.0 °F 55.4 °F 88% 29.88 in 6.0 mi SW 8.1 mph - 0.00 in   Overcast
5:53 PM 59.0 °F 55.9 °F 90% 29.88 in 5.0 mi SW 8.1 mph - 0.00 in   Overcast
6:53 PM 59.0 °F 55.9 °F 90% 29.89 in 5.0 mi SW 6.9 mph - N/A   Overcast
7:42 PM 59.0 °F 55.4 °F 88% 29.91 in 6.0 mi SW 10.4 mph - N/A   Overcast
7:53 PM 59.0 °F 55.0 °F 87% 29.91 in 8.0 mi SW 8.1 mph - N/A   Overcast
8:00 PM 59.0 °F 55.4 °F 88% 29.92 in 8.0 mi SW 8.1 mph - N/A   Overcast
8:07 PM 59.0 °F 55.4 °F 88% 29.92 in 9.0 mi SW 9.2 mph - N/A   Overcast
8:33 PM 59.0 °F 55.4 °F 88% 29.93 in 8.0 mi SW 6.9 mph - N/A   Overcast
8:53 PM 59.0 °F 55.0 °F 87% 29.93 in 9.0 mi SW 5.8 mph - N/A   Overcast
10:53 PM 57.9 °F 54.0 °F 87% 29.96 in 9.0 mi SSW 5.8 mph - N/A   Mostly Cloudy
11:53 PM 57.0 °F 53.1 °F 87% 29.96 in 7.0 mi Calm Calm - N/A   Clear